DELTA 1 DEB, 10870

Orbit data source: Space-Track

DELTA 1 DEB, 10870 is space debris in SSO originally from a launch on Thu, 29 Jul 1976 UTC launched from the Air Force Western Test Range (AFWTR). Debris objects in space refer to the collection of defunct objects orbiting the Earth. Examples of debris include non-operational satellites, rocket bodies, and fragments generated from explosions, collisions, or faulty payload assembly.

Loading next visibility...
Identifier
10870, 1976-077CY
Orbit
SSO
Country
Flag of USUS
Related business
Manufacturer
Unknown
Mission
Spacecraft
Bus & Motor
Unknown
Mass
Unknown
Launch date (UTC)
1976-07-29 (50 years ago)
Launch vehicle
Unknown
Launch site
Air Force Western Test Range (AFWTR)
Object type
Payload
Rocket body
Debris
Shape & HBR
Unknown shape, 0.2 m
Radar Cross Section
Medium (>0.1 m² and <1 m²)

Expand to show TLE details & history
Last TLE update: 2 days ago

TLE from 2 days ago
0 DELTA 1 DEB
1 10870U 76077CY  26171.43263255  .00000626  00000-0  44668-2 0  9994
2 10870 101.7329 153.6510 0011144 147.4806   5.8732 12.48905640264267
Epoch: 2026-06-20T10:22Z
TLE epoch observation values (Epoch: 2026-06-20T10:22:59.452Z)
Latitude
26.0676°
Longitude
-84.94147°
Altitude
1,463.244 km
Speed
7.137 km/s
True Right ascension
22h 37m 48s
True Declination
25° 56' 40"
Sunlit
Object was in daylight at epoch
Visualization orbit readout
Latitude
Unknown
Longitude
Unknown
Altitude
Unknown
Speed
Unknown
Apparent Right ascension
Unknown
Apparent Declination
Unknown
Sunlit
N/A
Visualization observer readout
Local Sidereal Time
07:10:04
Azimuth
Unknown
Elevation
Unknown
Doppler factor
Unknown
Orbital elements
Apogee altitude
1,475.365 km
Perigee altitude
1,457.881 km
Semi-major axis
7,844.76 km
Eccentricity
0.00111
Inclination
101.7329°
RAAN
153.651°
Arg. of periapsis
147.4806°
True anomaly
5.88629°
Mean anomaly
5.8732°
Eccentric anomaly
5.87974°
Mean motion
3.12373 °/min
Orbital period
115.25 mins
BSTAR
0.0044668
Loading maneuver chart data...
Computing Atmospheric mass density...
Loading historical data...
Loading historical data...
Loading historical data...
Loading historical data...
Loading historical data...
Loading historical data...
Loading historical data...

Documentation

Showing up to 5 results
|